[[{"header":{"parameterUnit":"m.s-1","parameterCategory":1,"la1":30.2991,"la2":30.254,"lo1":-89.0895,"lo2":-89.0444,"dy":0.0017,"dx":0.0017,"nx":28,"ny":28,"refTime":"2024-06-03T03:00:00:Z","depth":0,"parameterNumber":2,"parameterNumberName":"U-component_of_WINDS"},"data":[0,0,0,0,0,0,0,0,0,0,0,0,0,0,0,0,0,0,0,0,0,0,0,0,0,0,0,0,0,0,0,0,0,0,0,0,0,0,0,0,0,0,0,0,0,0,0,0,0,0,0,0,0,0,0,0,0,0,-0.1551,-0.1551,0,-0.1579,-0.1579,-0.1579,-0.1622,-0.1623,-0.1624,-0.1624,-0.165,-0.165,-0.165,0,0,0,0,0,0,0,0,0,0,0,0,0,-0.1535,-0.1535,-0.1551,-0.1552,-0.1552,-0.1579,-0.1579,-0.1579,-0.1622,-0.1623,-0.1624,-0.1625,-0.165,-0.165,-0.165,0,0,0,0,0,0,0,0,0,0,0,0,0,-0.155,-0.1535,-0.1551,-0.1576,-0.1579,-0.1579,-0.1579,-0.1579,-0.1622,-0.1623,-0.1624,-0.1625,-0.165,-0.165,-0.165,-0.1626,0,0,-0.165,-0.165,0,0,0,0,0,0,0,0,-0.1549,-0.1551,-0.1572,-0.1575,-0.1577,-0.1598,-0.1583,-0.1595,-0.1621,-0.1605,-0.1624,-0.1626,-0.1632,-0.1633,-0.1636,-0.1627,-0.1628,-0.165,-0.165,-0.165,-0.165,0,0,0,0,0,0,0,-0.1548,-0.155,-0.1562,-0.1573,-0.1576,-0.1586,-0.159,-0.1585,-0.1611,-0.1607,-0.161,-0.1613,-0.1633,-0.1636,-0.1637,-0.1629,-0.165,-0.165,-0.165,-0.1649,-0.1605,-0.1604,0,0,0,0,0,0,-0.1544,-0.1549,-0.1561,-0.1563,-0.1566,-0.1586,-0.1589,-0.159,-0.1612,-0.1616,-0.1612,-0.1615,-0.1635,-0.1637,-0.1638,-0.1613,-0.165,-0.1649,-0.1649,-0.1606,-0.1605,-0.1603,0,0,0,0,0,0,-0.1543,-0.1544,-0.156,-0.1557,-0.1559,-0.1585,-0.1585,-0.159,-0.1593,-0.1616,-0.162,-0.1609,-0.1636,-0.1638,-0.1629,-0.1614,-0.1649,-0.1649,-0.1607,-0.1606,-0.1604,-0.1562,0,0,0,0,0,0,-0.1542,-0.1544,-0.1535,-0.1556,-0.1559,-0.1551,-0.1584,-0.159,-0.1593,-0.1597,-0.1615,-0.1619,-0.1637,-0.1629,-0.1629,-0.1615,-0.1649,-0.1609,-0.1607,-0.1605,-0.1565,-0.1559,-0.1554,0,0,0,0,0,-0.1542,-0.1521,-0.1534,-0.1536,-0.1549,-0.155,-0.1552,-0.1575,-0.1591,-0.1583,-0.1598,-0.1618,-0.1616,-0.1628,-0.1628,-0.1614,-0.161,-0.1607,-0.1605,-0.1567,-0.156,-0.1554,0,0,0,0,0,0,-0.1496,-0.1524,-0.1539,-0.1525,-0.1535,-0.1558,-0.1548,-0.1566,-0.1571,-0.1575,-0.1602,-0.1605,-0.1594,-0.1603,-0.1616,-0.1593,-0.1616,-0.1614,-0.1588,-0.1581,-0.1576,-0.1574,-0.1649,0,0,0,0,0,-0.1485,-0.1484,-0.1508,-0.1493,-0.1498,-0.1522,-0.1523,-0.154,-0.1551,-0.1555,-0.157,-0.1579,-0.1581,-0.1582,-0.1584,-0.1567,-0.1572,-0.1557,-0.1552,-0.1547,-0.1544,-0.1538,-0.1532,-0.1595,-0.1595,-0.1595,0,0,-0.1461,-0.1476,-0.1473,-0.1485,-0.1495,-0.1493,-0.1525,-0.1522,-0.1521,-0.1554,-0.1548,-0.1559,-0.1572,-0.1559,-0.1554,-0.1567,-0.1528,-0.1544,-0.154,-0.154,-0.1534,-0.1528,-0.1523,-0.1593,-0.1594,-0.1594,0,0,-0.1416,-0.1427,-0.1417,-0.1427,-0.1442,-0.1458,-0.1456,-0.1476,-0.1485,-0.148,-0.1505,-0.1505,-0.1507,-0.1516,-0.152,-0.1481,-0.1501,-0.1481,-0.1453,-0.1446,-0.1441,-0.1437,-0.1424,-0.1419,-0.1479,-0.1479,-0.1479,0,-0.1384,-0.1384,-0.1409,-0.1405,-0.141,-0.1442,-0.1432,-0.144,-0.1455,-0.1457,-0.1471,-0.1476,-0.1486,-0.1477,-0.1468,-0.147,-0.1469,-0.1479,-0.144,-0.1436,-0.1433,-0.1421,-0.1416,-0.1476,-0.1477,-0.1477,-0.1477,0,-0.1344,-0.1343,-0.1333,-0.1349,-0.1352,-0.1345,-0.137,-0.137,-0.1387,-0.1402,-0.1397,-0.1411,-0.1418,-0.1417,-0.1433,-0.1411,-0.1418,-0.1435,-0.1459,-0.1424,-0.1413,-0.1409,-0.1473,-0.1474,-0.1475,-0.1475,0,0,-0.1271,-0.1302,-0.1298,-0.1306,-0.1326,-0.1326,-0.1321,-0.1329,-0.133,-0.1339,-0.1336,-0.1338,-0.1355,-0.136,-0.1377,-0.1371,-0.1341,-0.139,-0.139,-0.1381,-0.132,-0.1307,-0.1301,-0.1354,-0.1354,-0.1353,-0.1319,0,-0.1231,-0.1225,-0.1249,-0.1236,-0.1237,-0.1268,-0.1264,-0.1275,-0.129,-0.1292,-0.1308,-0.1309,-0.1331,-0.1335,-0.133,-0.1346,-0.1329,-0.1349,-0.1352,-0.1352,-0.1348,-0.1295,-0.1281,-0.1248,-0.1315,-0.1314,-0.1314,0,-0.1183,-0.1192,-0.118,-0.1203,-0.1204,-0.12,-0.1211,-0.1212,-0.1227,-0.1238,-0.1245,-0.1265,-0.1262,-0.1285,-0.1281,-0.1294,-0.1297,-0.1305,-0.1304,-0.1306,-0.1331,-0.1296,-0.1238,-0.1234,-0.1307,-0.1308,-0.1308,0,-0.1133,-0.1142,-0.1136,-0.1142,-0.1168,-0.1165,-0.1175,-0.1191,-0.1195,-0.1204,-0.1207,-0.1215,-0.1219,-0.1225,-0.1248,-0.1262,-0.1242,-0.1266,-0.1251,-0.1251,-0.1245,-0.1246,-0.1188,-0.1246,-0.1246,-0.1246,-0.1246,0,-0.1086,-0.1078,-0.1114,-0.1111,-0.1103,-0.113,-0.1122,-0.1135,-0.1149,-0.1149,-0.1176,-0.1176,-0.1205,-0.1208,-0.1225,-0.122,-0.1221,-0.1231,-0.1235,-0.1229,-0.1227,-0.1231,-0.1234,-0.1245,-0.1245,-0.1246,-0.1246,0,-0.1028,-0.1052,-0.1048,-0.1074,-0.108,-0.1073,-0.1095,-0.1093,-0.111,-0.111,-0.1111,-0.1137,-0.1142,-0.1165,-0.1174,-0.1186,-0.1176,-0.1185,-0.1171,-0.1175,-0.1159,-0.116,-0.1102,-0.1096,-0.1157,-0.1156,-0.1156,0,-0.0997,-0.0992,-0.1018,-0.102,-0.103,-0.1033,-0.1038,-0.1066,-0.107,-0.1087,-0.1083,-0.1091,-0.1098,-0.1104,-0.1123,-0.1131,-0.1141,-0.112,-0.1142,-0.1136,-0.1142,-0.1142,-0.1143,-0.1115,-0.1115,-0.1114,-0.1113,0,-0.094,-0.0953,-0.0959,-0.0971,-0.0976,-0.0986,-0.0997,-0.0997,-0.1028,-0.1031,-0.1037,-0.1043,-0.1054,-0.1061,-0.1073,-0.1083,-0.1103,-0.1107,-0.1104,-0.1097,-0.109,-0.1094,-0.1159,-0.1108,-0.1108,-0.1109,-0.1109,-0.1109,-0.0896,-0.0893,-0.0912,-0.0918,-0.093,-0.0941,-0.0941,-0.0958,-0.0964,-0.0976,-0.0992,-0.0996,-0.1012,-0.103,-0.1039,-0.1043,-0.1054,-0.105,-0.1049,-0.1047,-0.1045,-0.1089,-0.1045,-0.1045,-0.1045,-0.1045,-0.1046,0,-0.0841,-0.0855,-0.0861,-0.0877,-0.0883,-0.0903,-0.0917,-0.092,-0.0924,-0.0937,-0.0945,-0.0952,-0.096,-0.098,-0.099,-0.0989,-0.0999,-0.0991,-0.0991,-0.0994,-0.1033,-0.1035,-0.0983,-0.0983,-0.0983,-0.0983,-0.0983,-0.0983,-0.0814,-0.0811,-0.0826,-0.083,-0.0844,-0.0849,-0.0856,-0.0866,-0.0877,-0.0885,-0.0892,-0.0906,-0.0922,-0.0934,-0.0942,-0.0948,-0.095,-0.0939,-0.0948,-0.0985,-0.0991,-0.0996,-0.0999,-0.0939,-0.0939,-0.0909,-0.0908,-0.0908]},{"header":{"parameterUnit":"m.s-1","parameterCategory":1,"la1":30.2991,"la2":30.254,"lo1":-89.0895,"lo2":-89.0444,"dy":0.0017,"dx":0.0017,"nx":28,"ny":28,"refTime":"2024-06-03T03:00:00:Z","depth":0,"parameterNumber":3,"parameterNumberName":"V-component_of_WINDS"},"data":[0,0,0,0,0,0,0,0,0,0,0,0,0,0,0,0,0,0,0,0,0,0,0,0,0,0,0,0,0,0,0,0,0,0,0,0,0,0,0,0,0,0,0,0,0,0,0,0,0,0,0,0,0,0,0,0,0,0,4.6916,4.6915,0,4.6848,4.6848,4.6847,4.6733,4.6731,4.6729,4.6727,4.6659,4.6659,4.6659,0,0,0,0,0,0,0,0,0,0,0,0,0,4.6947,4.6947,4.6916,4.6915,4.6914,4.6848,4.6848,4.6847,4.6733,4.6731,4.6728,4.6726,4.6659,4.6659,4.6659,0,0,0,0,0,0,0,0,0,0,0,0,0,4.6912,4.6947,4.6916,4.6849,4.6843,4.6849,4.6848,4.6846,4.6734,4.6731,4.6727,4.6724,4.6659,4.6659,4.6659,4.6725,0,0,4.666,4.666,0,0,0,0,0,0,0,0,4.6914,4.6911,4.686,4.6854,4.6847,4.6796,4.6834,4.6806,4.6735,4.6775,4.6727,4.6723,4.6707,4.6703,4.6698,4.6722,4.6719,4.666,4.666,4.666,4.6661,0,0,0,0,0,0,0,4.6917,4.6913,4.6889,4.6859,4.6851,4.6823,4.6815,4.6828,4.676,4.6771,4.6763,4.6757,4.6703,4.6698,4.6695,4.6718,4.666,4.666,4.6661,4.6661,4.6791,4.6794,0,0,0,0,0,0,4.6929,4.6916,4.6891,4.6887,4.6873,4.6826,4.6816,4.6815,4.6759,4.6748,4.6759,4.6751,4.6699,4.6695,4.6692,4.6764,4.666,4.6661,4.6661,4.6788,4.6792,4.6796,0,0,0,0,0,0,4.693,4.6928,4.6894,4.6899,4.6893,4.6828,4.6829,4.6816,4.681,4.675,4.6738,4.6766,4.6696,4.6692,4.6717,4.676,4.6661,4.6661,4.6784,4.6789,4.6794,4.691,0,0,0,0,0,0,4.6931,4.6929,4.6953,4.6901,4.6893,4.692,4.6831,4.6817,4.6811,4.68,4.6754,4.6743,4.6693,4.6718,4.6718,4.6759,4.6661,4.678,4.6786,4.6792,4.6902,4.6918,4.6932,0,0,0,0,0,4.6933,4.6988,4.6955,4.6952,4.6921,4.6923,4.6918,4.686,4.6815,4.6838,4.68,4.6744,4.6756,4.6721,4.672,4.6762,4.6777,4.6785,4.6792,4.6895,4.6915,4.6932,0,0,0,0,0,0,4.7048,4.698,4.6942,4.6982,4.6959,4.6903,4.6931,4.6883,4.6872,4.6862,4.6791,4.6781,4.6816,4.6792,4.6754,4.6822,4.6758,4.6765,4.6837,4.6855,4.687,4.6874,4.6662,0,0,0,0,0,4.7078,4.7084,4.7025,4.7066,4.7057,4.6997,4.6995,4.6952,4.6925,4.6914,4.6878,4.6854,4.6852,4.6852,4.6847,4.6898,4.6886,4.6927,4.6942,4.6955,4.6962,4.6986,4.7003,4.682,4.682,4.682,0,0,4.714,4.7104,4.7112,4.7088,4.7065,4.7073,4.6989,4.7001,4.7006,4.6916,4.6937,4.691,4.6879,4.6917,4.6932,4.6898,4.701,4.6964,4.6975,4.6975,4.6995,4.7013,4.7028,4.6825,4.6824,4.6823,0,0,4.7256,4.723,4.7261,4.724,4.7206,4.7165,4.7173,4.7125,4.7103,4.7123,4.7056,4.7061,4.706,4.704,4.703,4.714,4.7088,4.7141,4.7219,4.7244,4.7258,4.727,4.7309,4.7323,4.7148,4.7149,4.7149,0,4.7338,4.7347,4.7284,4.73,4.7291,4.721,4.7241,4.7224,4.719,4.7186,4.7149,4.7145,4.7118,4.715,4.7177,4.7172,4.7178,4.7145,4.7261,4.7273,4.7284,4.7319,4.7334,4.7155,4.7154,4.7154,4.7153,0,4.7448,4.7456,4.7485,4.7454,4.7449,4.7473,4.7413,4.7416,4.7374,4.7338,4.7359,4.7325,4.7311,4.7316,4.7275,4.7342,4.7322,4.7274,4.7207,4.7309,4.7341,4.7354,4.7164,4.7162,4.716,4.7158,0,0,4.7634,4.7568,4.758,4.7564,4.7521,4.7526,4.7547,4.7533,4.7536,4.7516,4.7531,4.7532,4.7487,4.7476,4.7432,4.7454,4.7542,4.7403,4.7401,4.7429,4.7613,4.7648,4.7665,4.7508,4.751,4.7512,4.7615,0,4.7741,4.7771,4.7715,4.7758,4.7764,4.7688,4.7705,4.7681,4.7648,4.7648,4.7612,4.7613,4.7555,4.7547,4.7566,4.7528,4.7578,4.752,4.752,4.7521,4.7529,4.7682,4.7719,4.7818,4.7627,4.7629,4.7631,0,4.7868,4.7854,4.7899,4.7853,4.7853,4.787,4.7852,4.7854,4.7825,4.7799,4.7787,4.7736,4.7752,4.769,4.7711,4.7673,4.767,4.7652,4.7654,4.7651,4.7581,4.7682,4.7848,4.7862,4.765,4.7649,4.7647,0,4.7998,4.7991,4.8016,4.8005,4.7953,4.7966,4.7945,4.7912,4.7908,4.7893,4.7889,4.7877,4.787,4.7862,4.7809,4.7768,4.7837,4.7769,4.7815,4.7817,4.7832,4.7831,4.7999,4.7833,4.7833,4.7832,4.7832,0,4.8122,4.8152,4.8073,4.8089,4.812,4.8056,4.8088,4.8059,4.8031,4.804,4.7974,4.7983,4.7912,4.7914,4.7873,4.7897,4.7894,4.7874,4.7862,4.7879,4.7881,4.7875,4.7866,4.7836,4.7835,4.7835,4.7834,0,4.8272,4.822,4.8242,4.8191,4.8179,4.8204,4.8159,4.8172,4.8135,4.8146,4.8145,4.8088,4.8086,4.8032,4.802,4.7992,4.8033,4.8009,4.8042,4.8034,4.8083,4.8079,4.8251,4.827,4.8094,4.8096,4.8097,0,4.8354,4.8375,4.8325,4.8326,4.8308,4.831,4.8305,4.8243,4.824,4.8209,4.8225,4.8218,4.8209,4.8211,4.8168,4.8158,4.8132,4.8194,4.813,4.8147,4.8132,4.8131,4.8132,4.8207,4.8209,4.8211,4.8212,0,4.8504,4.8478,4.8472,4.8459,4.8454,4.8441,4.8423,4.8427,4.8359,4.836,4.8357,4.8351,4.8338,4.8332,4.8314,4.8292,4.8241,4.8233,4.8242,4.8259,4.8277,4.8267,4.8077,4.8229,4.8227,4.8226,4.8225,4.8224,4.8621,4.8636,4.8604,4.86,4.858,4.8565,4.8574,4.8538,4.8535,4.8519,4.8483,4.8487,4.8457,4.8428,4.841,4.8412,4.8381,4.8395,4.8399,4.8403,4.8412,4.8278,4.8408,4.8408,4.8407,4.8407,4.8407,0,4.8767,4.8742,4.874,4.8717,4.8714,4.8667,4.8645,4.8646,4.8649,4.8626,4.8619,4.8616,4.861,4.8567,4.8555,4.8565,4.8541,4.8564,4.8562,4.8558,4.8441,4.8433,4.8583,4.8583,4.8583,4.8583,4.8583,4.8583,4.8842,4.8865,4.8835,4.8847,4.8822,4.8825,4.8816,4.8802,4.8782,4.8782,4.8777,4.8749,4.8717,4.8703,4.8695,4.8683,4.8681,4.8712,4.8691,4.8583,4.8566,4.855,4.8542,4.8712,4.8712,4.8807,4.8808,4.8809]}]]